STARLINK-38085, 69996

Orbit data source: Space-Track

STARLINK-38085, 69996 is a payload satellite owned by SpaceX/Seattle (US) in SSO that was launched on Sat, 11 Jul 2026 UTC via an FALCON 9 launch vehicle from the Air Force Western Test Range (AFWTR). Payload-class satellites include a variety of spacecraft equipped with specific instruments for various scientific and technological missions. These include communications satellites like Starlink; space stations such as the ISS; scientific satellites like the Hubble; Earth observation satellites from companies like Planet Labs, Umbra, and HawkEye 360; GPS; miniature CubeSats for education and research; and military/defense satellites.

Not visible in the next 10 days
Identifier
69996, 2026-159X
Orbit
SSO
Country
Flag of USUS
Related business
Manufacturer
SpaceX/Seattle
Mission
Operational spacecraft
Bus & Motor
STARLINK V2MO, Unknown motor
Mass
575 kg wet, ~530 kg dry
Launch date (UTC)
2026-07-11 (1 month ago)
Launch vehicle
FALCON 9
Launch site
Air Force Western Test Range (AFWTR)
Object type
Payload
Rocket body
Debris
Shape & HBR
BOX + PAN, 17.7 m
Radar Cross Section
Large (>1 m²)

Expand to show TLE details & history
Last TLE update: 13 hours ago

TLE from 13 hours ago
0 STARLINK-38085
1 69996U 26159X   26228.53406373  .00169849  00000-0  11143-2 0  9992
2 69996  97.2838  68.9459 0001147  89.6504 270.4893 15.75247423  6968
Epoch: 2026-08-16T12:49Z
TLE epoch observation values (Epoch: 2026-08-16T12:49:03.106Z)
Latitude
0.00002°
Longitude
-88.24625°
Altitude
347.089 km
Speed
7.701 km/s
True Right ascension
04h 35m 47s
True Declination
0° 00' 00"
Sunlit
Object was in daylight at epoch
Visualization orbit readout
Latitude
Unknown
Longitude
Unknown
Altitude
Unknown
Speed
Unknown
Apparent Right ascension
Unknown
Apparent Declination
Unknown
Sunlit
N/A
Visualization observer readout
Local Sidereal Time
16:52:17
Azimuth
Unknown
Elevation
Unknown
Doppler factor
Unknown
Orbital elements
Apogee altitude
341.585 km
Perigee altitude
340.044 km
Semi-major axis
6,718.951 km
Eccentricity
0.00011
Inclination
97.2838°
RAAN
68.9459°
Arg. of periapsis
89.6504°
True anomaly
270.47616°
Mean anomaly
270.4893°
Eccentric anomaly
270.48273°
Mean motion
3.94086 °/min
Orbital period
91.35 mins
BSTAR
0.0011143
Loading maneuver chart data...
Computing Atmospheric mass density...
Loading historical data...
Loading historical data...
Loading historical data...
Loading historical data...
Loading historical data...
Loading historical data...
Loading historical data...

Documentation

Showing up to 5 results
|